Location: Chavenne
(46.6022°N, 3.2951°E)
Time: 19:06:18
(UTC+00:00)

Cosmos 1535 Rocket - Pass Details

Date: 09 April 2020
Orbit: 949 x 1003 km, 83.0° (Epoch: 31 May)

Event Time Altitude Azimuth Distance (km) Brightness Sun altitude
Rises 21:38:35 0° 352° (N) 3,648 8.4 -28.2°
Reaches altitude 10° 21:41:06 10° 355° (N) 2,704 7.5 -28.5°
Enters shadow 21:47:09 74° 67° (ENE) 1,010 4.4 -29.1°
